Погода в Сестри-Леванте

Италия     44°16′25″N   9°23′46″E
темп.,
°C
ветер,
м/с
пор.,
м/с
влажн.,
%
обл.,
%
осадки,
мм/ч
давл.,
гПа
погр.,
м
25 февраля, чт
чт2501:00+11св33520 0.0 103331
04:00+10св33540 0.0 103228
07:00+10св23540 0.0 103228
10:00+15всв01530 0.0 1032112
13:00+17юз11500 0.0 1031249
16:00+15ююз11590 0.0 1030150
19:00+11св11740 0.0 103023
22:00+10св12720 0.0 103122
26 февраля, пт
пт2601:00+10св12680 0.0 103122
04:00+9ссв22620 0.0 102922
07:00+9ссв22610 0.0 102923
10:00+14ю11540 0.0 1029205
13:00+15юз11560 0.0 1028283
16:00+14зюз11590 0.0 1026191
19:00+10с11710 0.0 102624
22:00+10ссв12670 0.0 102723
27 февраля, сб
сб2701:00+9св12630 0.0 102622
04:00+8св22620 0.0 102524
07:00+8св22680 0.0 102528
10:00+14зюз11600 0.0 1026238
13:00+16зюз11560 0.0 1026341
16:00+15зсз12600 0.0 1025272
19:00+11св22760 0.0 102638
22:00+10св33788 0.0 102763
28 февраля, вс
вс2801:00+9ссв347610 0.0 102879
04:00+8св44750 0.0 1028103
07:00+7св44690 0.0 102897
10:00+12св23530 0.0 1029251
13:00+15ссз12480 0.0 1029644
16:00+14с23560 0.0 1027598
19:00+9св33750 0.0 102867
22:00+8св33760 0.0 102985
1 марта, пн
пн101:00+8св33730 0.0 102962
04:00+7св33730 0.0 102960
07:00+6св23750 0.0 102957
10:00+12св116047 0.0 1030354
13:00+14юз215840 0.0 1030556
16:00+13юз116246 0.0 1029341
19:00+9св227457 0.0 103044
22:00+8св337194 0.0 103279